Location: Czekanka
(50.4925°N, 19.2643°E)
Time: 03:05:30
(UTC+00:00)

Cosmos 2297 Rocket - Pass Details

Date: 15 June 2024
Orbit: 838 x 844 km, 71.0° (Epoch: 22 July)

Event Time Altitude Azimuth Distance (km) Brightness Sun altitude
Exits shadow 00:24:41 - 253° (WSW) 2,946 4.6 -12.9°
Reaches altitude 10° 00:26:13 10° 260° (W) 2,456 4.3 -12.8°
Maximum altitude 00:30:57 27° 318° (NW) 1,569 3.9 -12.5°
Drops below altitude 10° 00:35:43 10° 15° (NNE) 2,468 6.1 -12.1°
Sets 00:38:34 0° 28° (NNE) 3,407 7.6 -11.9°
